Darstellungsparameter: Aktuell verwendete Einstellungen:
Skalierung der Graphiken ... ?
xyx+y,   Skalierungsfaktor:      Skalierung: Modus: x, Faktor: 1
Darstellungszeitraum ... ?
Vom - - bis: - -   Zeitraum: 11.08.2020 - 11.08.2020
Min/Max/Avg-Anzeige ... ?
Zeige MMA aktuell
Zeige MMA Monat
Zeige MMA alles
Zeige --A aktuell
Zeige --A Monat
Zeige --A alles
Keine MMA-Anzeige
MMA:
Average (ber die Originaldaten)
MMA-Basis: 11.08.2020 - 11.08.2020
Quicknavigation für Darstellung... ?
Tage:      1T, 2T, 3T, 5T -1T -2T -3T -5T +1T +2T +3T +5T
Wochen: 1W, 2W, 3W -1W -2W -3W +1W +2W +3W
Monate: 1M, 3M, 6M -1M -3M -6M +1M +3M +6M
Jahre:    1J, 3J, 5J, 10J -1J -3J -5J -10J +1J +3J +5J +10J
Nutze für die Darstellung ... ?
Originaldaten oder Mittelwerte auf ...
Stundenbasis Tagesbasis Wochenbasis
Monatsbasis Jahresbasis      Datenbasis: Original-Daten
Darstellen als:
Statistik (Auto) Statistik J:M      Darstellung:
Zur Graphik,    zurück zur Übersicht aller Sensoren.
 
Tabellarische Datenbersicht: ?
 
Sensor: Nr:Datum:Temp:Abs-Feuchte:Windchill:Wind:
Aussen-T/F 1 11-08-2020 00:00:00 24.1 C 15.53 g/m*3 24.1 C 3.2 km/h
2 11-08-2020 00:05:00 24 C 15.45 g/m*3 24 C 1.6 km/h
3 11-08-2020 00:10:00 23.9 C 15.36 g/m*3 23.9 C 1.6 km/h
4 11-08-2020 00:15:00 23.8 C 15.49 g/m*3 23.8 C 3.2 km/h
5 11-08-2020 00:20:00 23.8 C 15.49 g/m*3 23.8 C 3.2 km/h
6 11-08-2020 00:25:00 23.7 C 15.4 g/m*3 23.7 C 3.2 km/h
7 11-08-2020 00:30:00 23.6 C 15.53 g/m*3 23.6 C 3.2 km/h
8 11-08-2020 00:35:00 23.4 C 15.35 g/m*3 23.4 C 3.2 km/h
9 11-08-2020 00:40:00 23.3 C 15.26 g/m*3 23.3 C 0 km/h
10 11-08-2020 00:45:00 23.2 C 15.38 g/m*3 23.2 C 0 km/h
11 11-08-2020 00:50:00 23.2 C 15.38 g/m*3 23.2 C 0 km/h
12 11-08-2020 00:55:00 23.1 C 15.5 g/m*3 23.1 C 0 km/h
13 11-08-2020 01:00:00 23.1 C 15.5 g/m*3 23.1 C 4.8 km/h
14 11-08-2020 01:05:00 23 C 15.42 g/m*3 23 C 0 km/h
15 11-08-2020 01:10:00 22.9 C 15.33 g/m*3 22.9 C 3.2 km/h
16 11-08-2020 01:15:00 22.9 C 15.33 g/m*3 22.9 C 4.8 km/h
17 11-08-2020 01:20:00 22.9 C 15.53 g/m*3 22.9 C 3.2 km/h
18 11-08-2020 01:25:00 22.8 C 15.44 g/m*3 22.8 C 3.2 km/h
19 11-08-2020 01:30:00 22.8 C 15.44 g/m*3 22.8 C 0 km/h
20 11-08-2020 01:35:00 22.8 C 15.44 g/m*3 22.8 C 0 km/h
21 11-08-2020 01:40:00 22.7 C 15.36 g/m*3 22.7 C 0 km/h
22 11-08-2020 01:45:00 22.6 C 15.47 g/m*3 22.6 C 0 km/h
23 11-08-2020 01:50:00 22.5 C 15.38 g/m*3 22.5 C 0 km/h
24 11-08-2020 01:55:00 22.4 C 15.29 g/m*3 22.4 C 0 km/h
25 11-08-2020 02:00:00 22.3 C 15.2 g/m*3 22.3 C 0 km/h
Sensor: Nr:Datum:Temp:Abs-Feuchte:Windchill:Wind:
Aussen-T/F 26 11-08-2020 02:05:00 22.3 C 15.4 g/m*3 22.3 C 0 km/h
27 11-08-2020 02:10:00 22.2 C 15.31 g/m*3 22.2 C 0 km/h
28 11-08-2020 02:15:00 22.2 C 15.31 g/m*3 22.2 C 0 km/h
29 11-08-2020 02:20:00 22.1 C 15.23 g/m*3 22.1 C 0 km/h
30 11-08-2020 02:25:00 22.1 C 15.23 g/m*3 22.1 C 4.8 km/h
31 11-08-2020 02:30:00 22 C 15.33 g/m*3 22 C 4.8 km/h
32 11-08-2020 02:35:00 21.9 C 15.24 g/m*3 21.9 C 4.8 km/h
33 11-08-2020 02:40:00 21.9 C 15.24 g/m*3 21.9 C 3.2 km/h
34 11-08-2020 02:45:00 21.9 C 15.24 g/m*3 21.9 C 3.2 km/h
35 11-08-2020 02:50:00 21.8 C 15.16 g/m*3 21.8 C 4.8 km/h
36 11-08-2020 02:55:00 21.8 C 15.16 g/m*3 21.8 C 4.8 km/h
37 11-08-2020 03:00:00 21.8 C 15.16 g/m*3 21.8 C 3.2 km/h
38 11-08-2020 03:05:00 21.8 C 15.16 g/m*3 21.8 C 3.2 km/h
39 11-08-2020 03:10:00 21.7 C 15.07 g/m*3 21.7 C 4.8 km/h
40 11-08-2020 03:15:00 21.7 C 15.07 g/m*3 21.7 C 3.2 km/h
41 11-08-2020 03:20:00 21.7 C 15.07 g/m*3 21.7 C 1.6 km/h
42 11-08-2020 03:25:00 21.6 C 14.98 g/m*3 21.6 C 3.2 km/h
43 11-08-2020 03:30:00 21.6 C 14.98 g/m*3 21.6 C 1.6 km/h
44 11-08-2020 03:35:00 21.5 C 15.09 g/m*3 21.5 C 1.6 km/h
45 11-08-2020 03:40:00 21.4 C 15 g/m*3 21.4 C 3.2 km/h
46 11-08-2020 03:45:00 21.4 C 15 g/m*3 21.4 C 0 km/h
47 11-08-2020 03:50:00 21.3 C 14.91 g/m*3 21.3 C 3.2 km/h
48 11-08-2020 03:55:00 21.3 C 14.91 g/m*3 21.3 C 4.8 km/h
49 11-08-2020 04:00:00 21.2 C 14.83 g/m*3 21.2 C 1.6 km/h
50 11-08-2020 04:05:00 21.2 C 15.01 g/m*3 21.2 C 0 km/h
Sensor: Nr:Datum:Temp:Abs-Feuchte:Windchill:Wind:
Aussen-T/F 51 11-08-2020 04:10:00 21.1 C 14.92 g/m*3 21.1 C 0 km/h
52 11-08-2020 04:15:00 21.1 C 14.92 g/m*3 21.1 C 0 km/h
53 11-08-2020 04:20:00 21 C 14.84 g/m*3 21 C 0 km/h
54 11-08-2020 04:25:00 21 C 14.84 g/m*3 21 C 0 km/h
55 11-08-2020 04:30:00 21 C 14.84 g/m*3 21 C 0 km/h
56 11-08-2020 04:35:00 20.9 C 14.75 g/m*3 20.9 C 0 km/h
57 11-08-2020 04:40:00 20.9 C 14.75 g/m*3 20.9 C 0 km/h
58 11-08-2020 04:45:00 20.9 C 14.75 g/m*3 20.9 C 0 km/h
59 11-08-2020 04:50:00 20.8 C 14.85 g/m*3 20.8 C 0 km/h
60 11-08-2020 04:55:00 20.8 C 14.67 g/m*3 20.8 C 0 km/h
61 11-08-2020 05:00:00 20.8 C 14.85 g/m*3 20.8 C 0 km/h
62 11-08-2020 05:05:00 20.8 C 14.85 g/m*3 20.8 C 0 km/h
63 11-08-2020 05:10:00 20.7 C 14.76 g/m*3 20.7 C 0 km/h
64 11-08-2020 05:15:00 20.7 C 14.76 g/m*3 20.7 C 0 km/h
65 11-08-2020 05:20:00 20.7 C 14.76 g/m*3 20.7 C 0 km/h
66 11-08-2020 05:25:00 20.7 C 14.76 g/m*3 20.7 C 0 km/h
67 11-08-2020 05:30:00 20.6 C 14.68 g/m*3 20.6 C 0 km/h
68 11-08-2020 05:35:00 20.6 C 14.68 g/m*3 20.6 C 0 km/h
69 11-08-2020 05:40:00 20.5 C 14.59 g/m*3 20.5 C 0 km/h
70 11-08-2020 05:45:00 20.4 C 14.51 g/m*3 20.4 C 0 km/h
71 11-08-2020 05:50:00 20.4 C 14.51 g/m*3 20.4 C 0 km/h
72 11-08-2020 05:55:00 20.3 C 14.42 g/m*3 20.3 C 0 km/h
73 11-08-2020 06:00:00 20.3 C 14.42 g/m*3 20.3 C 0 km/h
74 11-08-2020 06:05:00 20.2 C 14.34 g/m*3 20.2 C 0 km/h
75 11-08-2020 06:10:00 20.2 C 14.51 g/m*3 20.2 C 0 km/h
Sensor: Nr:Datum:Temp:Abs-Feuchte:Windchill:Wind:
Aussen-T/F 76 11-08-2020 06:15:00 20.1 C 14.43 g/m*3 20.1 C 0 km/h
77 11-08-2020 06:20:00 20.1 C 14.43 g/m*3 20.1 C 0 km/h
78 11-08-2020 06:25:00 20.1 C 14.43 g/m*3 20.1 C 0 km/h
79 11-08-2020 06:30:00 20.1 C 14.43 g/m*3 20.1 C 0 km/h
80 11-08-2020 06:35:00 20.1 C 14.43 g/m*3 20.1 C 0 km/h
81 11-08-2020 06:40:00 20.1 C 14.43 g/m*3 20.1 C 0 km/h
82 11-08-2020 06:45:00 20 C 14.34 g/m*3 20 C 0 km/h
83 11-08-2020 06:50:00 20 C 14.34 g/m*3 20 C 0 km/h
84 11-08-2020 06:55:00 20.1 C 14.43 g/m*3 20.1 C 0 km/h
85 11-08-2020 07:00:00 20.1 C 14.6 g/m*3 20.1 C 0 km/h
86 11-08-2020 07:05:00 20.1 C 14.6 g/m*3 20.1 C 0 km/h
87 11-08-2020 07:10:00 20.1 C 14.6 g/m*3 20.1 C 0 km/h
88 11-08-2020 07:15:00 20.1 C 14.6 g/m*3 20.1 C 0 km/h
89 11-08-2020 07:20:00 20.2 C 14.69 g/m*3 20.2 C 0 km/h
90 11-08-2020 07:25:00 20.2 C 14.86 g/m*3 20.2 C 0 km/h
91 11-08-2020 07:30:00 20.3 C 14.95 g/m*3 20.3 C 0 km/h
92 11-08-2020 07:35:00 20.3 C 14.95 g/m*3 20.3 C 0 km/h
93 11-08-2020 07:40:00 20.4 C 15.04 g/m*3 20.4 C 0 km/h
94 11-08-2020 07:45:00 20.5 C 15.12 g/m*3 20.5 C 0 km/h
95 11-08-2020 07:50:00 20.7 C 15.3 g/m*3 20.7 C 0 km/h
96 11-08-2020 07:55:00 20.7 C 15.3 g/m*3 20.7 C 0 km/h
97 11-08-2020 08:00:00 20.9 C 15.3 g/m*3 20.9 C 0 km/h
98 11-08-2020 08:05:00 21 C 15.39 g/m*3 21 C 0 km/h
99 11-08-2020 08:10:00 21.2 C 15.57 g/m*3 21.2 C 0 km/h
100 11-08-2020 08:15:00 21.3 C 15.66 g/m*3 21.3 C 0 km/h
Sensor: Nr:Datum:Temp:Abs-Feuchte:Windchill:Wind:
Aussen-T/F 101 11-08-2020 08:20:00 21.5 C 15.65 g/m*3 21.5 C 0 km/h
102 11-08-2020 08:25:00 21.7 C 15.45 g/m*3 21.7 C 0 km/h
103 11-08-2020 08:30:00 21.8 C 15.35 g/m*3 21.8 C 0 km/h
104 11-08-2020 08:35:00 22 C 15.72 g/m*3 22 C 0 km/h
105 11-08-2020 08:40:00 22.2 C 15.51 g/m*3 22.2 C 0 km/h
106 11-08-2020 08:45:00 22.4 C 15.49 g/m*3 22.4 C 4.8 km/h
107 11-08-2020 08:50:00 22.6 C 15.67 g/m*3 22.6 C 1.6 km/h
108 11-08-2020 08:55:00 22.7 C 15.56 g/m*3 22.7 C 1.6 km/h
109 11-08-2020 09:00:00 22.8 C 15.44 g/m*3 22.8 C 0 km/h
110 11-08-2020 09:05:00 22.9 C 15.33 g/m*3 22.9 C 0 km/h
111 11-08-2020 09:10:00 23.2 C 15.59 g/m*3 23.2 C 0 km/h
112 11-08-2020 09:15:00 23.3 C 15.26 g/m*3 23.3 C 3.2 km/h
113 11-08-2020 09:20:00 23.5 C 15.44 g/m*3 23.5 C 0 km/h
114 11-08-2020 09:25:00 23.6 C 15.53 g/m*3 23.6 C 1.6 km/h
115 11-08-2020 09:30:00 23.8 C 15.7 g/m*3 23.8 C 0 km/h
116 11-08-2020 09:35:00 23.8 C 15.49 g/m*3 23.8 C 0 km/h
117 11-08-2020 09:40:00 23.9 C 15.58 g/m*3 23.9 C 1.6 km/h
118 11-08-2020 09:45:00 24.1 C 15.53 g/m*3 24.1 C 0 km/h
119 11-08-2020 09:50:00 24.1 C 15.75 g/m*3 24.1 C 0 km/h
120 11-08-2020 09:55:00 24.3 C 16.38 g/m*3 24.3 C 0 km/h
121 11-08-2020 10:00:00 24.4 C 16.02 g/m*3 24.4 C 1.6 km/h
122 11-08-2020 10:05:00 24.5 C 15.89 g/m*3 24.5 C 3.2 km/h
123 11-08-2020 10:10:00 24.7 C 16.3 g/m*3 24.7 C 0 km/h
124 11-08-2020 10:15:00 24.8 C 15.93 g/m*3 24.8 C 1.6 km/h
125 11-08-2020 10:20:00 25.1 C 16.2 g/m*3 25.1 C 1.6 km/h
Sensor: Nr:Datum:Temp:Abs-Feuchte:Windchill:Wind:
Aussen-T/F 126 11-08-2020 10:25:00 25.3 C 15.92 g/m*3 25.3 C 4.8 km/h
127 11-08-2020 10:30:00 25.7 C 16.04 g/m*3 25.7 C 8.1 km/h
128 11-08-2020 10:35:00 25.9 C 15.74 g/m*3 25.9 C 9.7 km/h
129 11-08-2020 10:40:00 26.3 C 15.84 g/m*3 26.3 C 8.1 km/h
130 11-08-2020 10:45:00 26.6 C 16.11 g/m*3 26.6 C 9.7 km/h
131 11-08-2020 10:50:00 26.8 C 16.04 g/m*3 26.8 C 8.1 km/h
132 11-08-2020 10:55:00 27.1 C 16.04 g/m*3 27.1 C 11.3 km/h
133 11-08-2020 11:00:00 27.3 C 16.22 g/m*3 27.3 C 8.1 km/h
134 11-08-2020 11:05:00 27.6 C 16.23 g/m*3 27.6 C 12.9 km/h
135 11-08-2020 11:10:00 27.8 C 16.14 g/m*3 27.8 C 12.9 km/h
136 11-08-2020 11:15:00 27.9 C 15.96 g/m*3 27.9 C 11.3 km/h
137 11-08-2020 11:20:00 28.2 C 16.22 g/m*3 28.2 C 11.3 km/h
138 11-08-2020 11:25:00 28.3 C 16.03 g/m*3 28.3 C 11.3 km/h
139 11-08-2020 11:30:00 28.4 C 16.4 g/m*3 28.4 C 9.7 km/h
140 11-08-2020 11:35:00 28.4 C 16.12 g/m*3 28.4 C 6.4 km/h
141 11-08-2020 11:40:00 28.6 C 16.3 g/m*3 28.6 C 9.7 km/h
142 11-08-2020 11:45:00 28.9 C 16.28 g/m*3 28.9 C 12.9 km/h
143 11-08-2020 11:50:00 29.1 C 16.17 g/m*3 29.1 C 11.3 km/h
144 11-08-2020 11:55:00 29.2 C 16.26 g/m*3 29.2 C 11.3 km/h
145 11-08-2020 12:00:00 29.3 C 16.35 g/m*3 29.3 C 8.1 km/h
146 11-08-2020 12:05:00 29.4 C 16.44 g/m*3 29.4 C 6.4 km/h
147 11-08-2020 12:10:00 29.5 C 16.23 g/m*3 29.5 C 3.2 km/h
148 11-08-2020 12:15:00 29.6 C 16.32 g/m*3 29.6 C 4.8 km/h
149 11-08-2020 12:20:00 29.7 C 16.71 g/m*3 29.7 C 1.6 km/h
150 11-08-2020 12:25:00 29.7 C 16.41 g/m*3 29.7 C 3.2 km/h
Sensor: Nr:Datum:Temp:Abs-Feuchte:Windchill:Wind:
Aussen-T/F 151 11-08-2020 12:30:00 29.8 C 16.5 g/m*3 29.8 C 3.2 km/h
152 11-08-2020 12:35:00 29.8 C 16.2 g/m*3 29.8 C 6.4 km/h
153 11-08-2020 12:40:00 29.8 C 16.2 g/m*3 29.8 C 3.2 km/h
154 11-08-2020 12:45:00 29.8 C 16.2 g/m*3 29.8 C 6.4 km/h
155 11-08-2020 12:50:00 29.8 C 16.5 g/m*3 29.8 C 4.8 km/h
156 11-08-2020 12:55:00 29.9 C 16.89 g/m*3 29.9 C 3.2 km/h
157 11-08-2020 13:00:00 30 C 16.68 g/m*3 30 C 3.2 km/h
158 11-08-2020 13:05:00 30.1 C 16.46 g/m*3 30.1 C 0 km/h
159 11-08-2020 13:10:00 30.2 C 16.86 g/m*3 30.2 C 4.8 km/h
160 11-08-2020 13:15:00 30.2 C 16.55 g/m*3 30.2 C 3.2 km/h
161 11-08-2020 13:20:00 30.3 C 16.33 g/m*3 30.3 C 3.2 km/h
162 11-08-2020 13:25:00 30.3 C 16.33 g/m*3 30.3 C 0 km/h
163 11-08-2020 13:30:00 30.4 C 17.04 g/m*3 30.4 C 1.6 km/h
164 11-08-2020 13:35:00 30.4 C 16.73 g/m*3 30.4 C 3.2 km/h
165 11-08-2020 13:40:00 30.5 C 16.51 g/m*3 30.5 C 0 km/h
166 11-08-2020 13:45:00 30.6 C 16.6 g/m*3 30.6 C 3.2 km/h
167 11-08-2020 13:50:00 30.8 C 16.78 g/m*3 30.8 C 3.2 km/h
168 11-08-2020 13:55:00 31.1 C 17.05 g/m*3 31.1 C 3.2 km/h
169 11-08-2020 14:00:00 31.3 C 16.91 g/m*3 31.3 C 3.2 km/h
170 11-08-2020 14:05:00 31.4 C 16.35 g/m*3 31.4 C 6.4 km/h
171 11-08-2020 14:10:00 31.7 C 16.61 g/m*3 31.7 C 9.7 km/h
172 11-08-2020 14:15:00 31.9 C 16.12 g/m*3 31.9 C 6.4 km/h
173 11-08-2020 14:20:00 32.2 C 16.38 g/m*3 32.2 C 4.8 km/h
174 11-08-2020 14:25:00 32.4 C 15.17 g/m*3 32.4 C 14.5 km/h
175 11-08-2020 14:30:00 32.5 C 15.25 g/m*3 32.5 C 8.1 km/h
Sensor: Nr:Datum:Temp:Abs-Feuchte:Windchill:Wind:
Aussen-T/F 176 11-08-2020 14:35:00 32.6 C 15.33 g/m*3 32.6 C 3.2 km/h
177 11-08-2020 14:40:00 32.8 C 14.79 g/m*3 32.8 C 8.1 km/h
178 11-08-2020 14:45:00 32.9 C 14.87 g/m*3 32.9 C 8.1 km/h
179 11-08-2020 14:50:00 32.9 C 14.87 g/m*3 32.9 C 8.1 km/h
180 11-08-2020 14:55:00 32.8 C 15.15 g/m*3 32.8 C 9.7 km/h
181 11-08-2020 15:00:00 32.9 C 15.23 g/m*3 32.9 C 9.7 km/h
182 11-08-2020 15:05:00 33.1 C 15.39 g/m*3 33.1 C 6.4 km/h
183 11-08-2020 15:10:00 33.2 C 14.75 g/m*3 33.2 C 8.1 km/h
184 11-08-2020 15:15:00 33.2 C 15.11 g/m*3 33.2 C 6.4 km/h
185 11-08-2020 15:20:00 33.4 C 15.27 g/m*3 33.4 C 4.8 km/h
186 11-08-2020 15:25:00 33.4 C 14.54 g/m*3 33.4 C 8.1 km/h
187 11-08-2020 15:30:00 33.4 C 14.91 g/m*3 33.4 C 11.3 km/h
188 11-08-2020 15:35:00 33.4 C 14.54 g/m*3 33.4 C 4.8 km/h
189 11-08-2020 15:40:00 33.4 C 13.82 g/m*3 33.4 C 8.1 km/h
190 11-08-2020 15:45:00 33.6 C 15.06 g/m*3 33.6 C 4.8 km/h
191 11-08-2020 15:50:00 33.8 C 14.48 g/m*3 33.8 C 11.3 km/h
192 11-08-2020 15:55:00 34 C 13.88 g/m*3 34 C 6.4 km/h
193 11-08-2020 16:00:00 34.2 C 14.03 g/m*3 34.2 C 8.1 km/h
194 11-08-2020 16:05:00 34.3 C 14.1 g/m*3 34.3 C 8.1 km/h
195 11-08-2020 16:10:00 34.7 C 14.01 g/m*3 34.7 C 11.3 km/h
196 11-08-2020 16:15:00 35 C 14.23 g/m*3 35 C 8.1 km/h
197 11-08-2020 16:20:00 35.2 C 14.38 g/m*3 35.2 C 16.1 km/h
198 11-08-2020 16:25:00 35.4 C 13.72 g/m*3 35.4 C 9.7 km/h
199 11-08-2020 16:30:00 35.7 C 14.35 g/m*3 35.7 C 4.8 km/h
200 11-08-2020 16:35:00 35.9 C 14.08 g/m*3 35.9 C 6.4 km/h
Sensor: Nr:Datum:Temp:Abs-Feuchte:Windchill:Wind:
Aussen-T/F 201 11-08-2020 16:40:00 36.1 C 13.81 g/m*3 36.1 C 14.5 km/h
202 11-08-2020 16:45:00 35.8 C 13.6 g/m*3 35.8 C 14.5 km/h
203 11-08-2020 16:50:00 35.6 C 13.46 g/m*3 35.6 C 14.5 km/h
204 11-08-2020 16:55:00 35.4 C 13.72 g/m*3 35.4 C 11.3 km/h
205 11-08-2020 17:00:00 35.6 C 14.27 g/m*3 35.6 C 9.7 km/h
206 11-08-2020 17:05:00 35.3 C 14.05 g/m*3 35.3 C 19.3 km/h
207 11-08-2020 17:10:00 34.9 C 14.16 g/m*3 34.9 C 16.1 km/h
208 11-08-2020 17:15:00 34.9 C 14.16 g/m*3 34.9 C 11.3 km/h
209 11-08-2020 17:20:00 34.8 C 13.69 g/m*3 34.8 C 9.7 km/h
210 11-08-2020 17:25:00 34.5 C 13.87 g/m*3 34.5 C 8.1 km/h
211 11-08-2020 17:30:00 34.4 C 14.18 g/m*3 34.4 C 3.2 km/h
212 11-08-2020 17:35:00 34.3 C 13.72 g/m*3 34.3 C 3.2 km/h
213 11-08-2020 17:40:00 34.1 C 13.58 g/m*3 34.1 C 6.4 km/h
214 11-08-2020 17:45:00 33.8 C 13.74 g/m*3 33.8 C 8.1 km/h
215 11-08-2020 17:50:00 33.6 C 13.96 g/m*3 33.6 C 9.7 km/h
216 11-08-2020 17:55:00 33.5 C 13.89 g/m*3 33.5 C 1.6 km/h
217 11-08-2020 18:00:00 33.3 C 15.19 g/m*3 33.3 C 3.2 km/h
218 11-08-2020 18:05:00 33.1 C 14.31 g/m*3 33.1 C 4.8 km/h
219 11-08-2020 18:10:00 32.9 C 14.16 g/m*3 32.9 C 6.4 km/h
220 11-08-2020 18:15:00 32.7 C 14.01 g/m*3 32.7 C 4.8 km/h
221 11-08-2020 18:20:00 32.4 C 13.79 g/m*3 32.4 C 8.1 km/h
222 11-08-2020 18:25:00 32.2 C 13.99 g/m*3 32.2 C 8.1 km/h
223 11-08-2020 18:30:00 32 C 13.84 g/m*3 32 C 6.4 km/h
224 11-08-2020 18:35:00 31.8 C 14.03 g/m*3 31.8 C 6.4 km/h
225 11-08-2020 18:40:00 31.6 C 13.88 g/m*3 31.6 C 6.4 km/h
Sensor: Nr:Datum:Temp:Abs-Feuchte:Windchill:Wind:
Aussen-T/F 226 11-08-2020 18:45:00 31.4 C 14.39 g/m*3 31.4 C 8.1 km/h
227 11-08-2020 18:50:00 31.2 C 14.23 g/m*3 31.2 C 4.8 km/h
228 11-08-2020 18:55:00 31.1 C 14.48 g/m*3 31.1 C 6.4 km/h
229 11-08-2020 19:00:00 30.9 C 14.96 g/m*3 30.9 C 4.8 km/h
230 11-08-2020 19:05:00 30.7 C 15.12 g/m*3 30.7 C 3.2 km/h
231 11-08-2020 19:10:00 30.5 C 14.95 g/m*3 30.5 C 3.2 km/h
232 11-08-2020 19:15:00 30.4 C 14.87 g/m*3 30.4 C 6.4 km/h
233 11-08-2020 19:20:00 30.2 C 15.02 g/m*3 30.2 C 4.8 km/h
234 11-08-2020 19:25:00 30.1 C 15.85 g/m*3 30.1 C 3.2 km/h
235 11-08-2020 19:30:00 29.9 C 15.08 g/m*3 29.9 C 9.7 km/h
236 11-08-2020 19:35:00 29.8 C 16.2 g/m*3 29.8 C 4.8 km/h
237 11-08-2020 19:40:00 29.6 C 16.91 g/m*3 29.6 C 4.8 km/h
238 11-08-2020 19:45:00 29.2 C 17.42 g/m*3 29.2 C 4.8 km/h
239 11-08-2020 19:50:00 28.6 C 16.86 g/m*3 28.6 C 8.1 km/h
240 11-08-2020 19:55:00 27.8 C 16.68 g/m*3 27.8 C 11.3 km/h
241 11-08-2020 20:00:00 27.3 C 17.01 g/m*3 27.3 C 6.4 km/h
242 11-08-2020 20:05:00 26.8 C 17.31 g/m*3 26.8 C 11.3 km/h
243 11-08-2020 20:10:00 26.2 C 16.99 g/m*3 26.2 C 12.9 km/h
244 11-08-2020 20:15:00 25.8 C 17.57 g/m*3 25.8 C 11.3 km/h
245 11-08-2020 20:20:00 25.3 C 17.56 g/m*3 25.3 C 9.7 km/h
246 11-08-2020 20:25:00 24.9 C 17.63 g/m*3 24.9 C 3.2 km/h
247 11-08-2020 20:30:00 24.6 C 17.78 g/m*3 24.6 C 9.7 km/h
248 11-08-2020 20:35:00 24.1 C 17.72 g/m*3 24.1 C 11.3 km/h
249 11-08-2020 20:40:00 23.7 C 17.75 g/m*3 23.7 C 8.1 km/h
250 11-08-2020 20:45:00 23.4 C 18.08 g/m*3 23.4 C 4.8 km/h
Sensor: Nr:Datum:Temp:Abs-Feuchte:Windchill:Wind:
Aussen-T/F 251 11-08-2020 20:50:00 23.2 C 18.09 g/m*3 23.2 C 6.4 km/h
252 11-08-2020 20:55:00 22.9 C 17.98 g/m*3 22.9 C 6.4 km/h
253 11-08-2020 21:00:00 22.7 C 17.78 g/m*3 22.7 C 11.3 km/h
254 11-08-2020 21:05:00 22.6 C 17.88 g/m*3 22.6 C 9.7 km/h
255 11-08-2020 21:10:00 22.4 C 17.87 g/m*3 22.4 C 11.3 km/h
256 11-08-2020 21:15:00 22.3 C 17.97 g/m*3 22.3 C 11.3 km/h
257 11-08-2020 21:20:00 22.2 C 17.87 g/m*3 22.2 C 8.1 km/h
258 11-08-2020 21:25:00 22.1 C 17.96 g/m*3 22.1 C 6.4 km/h
259 11-08-2020 21:30:00 22 C 17.86 g/m*3 22 C 4.8 km/h
260 11-08-2020 21:35:00 21.9 C 17.75 g/m*3 21.9 C 6.4 km/h
261 11-08-2020 21:40:00 21.9 C 17.95 g/m*3 21.9 C 6.4 km/h
262 11-08-2020 21:45:00 21.9 C 17.95 g/m*3 21.9 C 8.1 km/h
263 11-08-2020 21:50:00 21.8 C 17.84 g/m*3 21.8 C 9.7 km/h
264 11-08-2020 21:55:00 21.8 C 17.84 g/m*3 21.8 C 6.4 km/h
265 11-08-2020 22:00:00 21.8 C 17.84 g/m*3 21.8 C 4.8 km/h
266 11-08-2020 22:05:00 21.8 C 17.84 g/m*3 21.8 C 6.4 km/h
267 11-08-2020 22:10:00 21.7 C 17.74 g/m*3 21.7 C 6.4 km/h
268 11-08-2020 22:15:00 21.7 C 17.74 g/m*3 21.7 C 11.3 km/h
269 11-08-2020 22:20:00 21.6 C 17.64 g/m*3 21.6 C 8.1 km/h
270 11-08-2020 22:25:00 21.6 C 17.64 g/m*3 21.6 C 9.7 km/h
271 11-08-2020 22:30:00 21.4 C 17.44 g/m*3 21.4 C 9.7 km/h
272 11-08-2020 22:35:00 21.4 C 17.44 g/m*3 21.4 C 8.1 km/h
273 11-08-2020 22:40:00 21.3 C 17.52 g/m*3 21.3 C 4.8 km/h
274 11-08-2020 22:45:00 21.3 C 17.52 g/m*3 21.3 C 3.2 km/h
275 11-08-2020 22:50:00 21.4 C 17.62 g/m*3 21.4 C 1.6 km/h
Sensor: Nr:Datum:Temp:Abs-Feuchte:Windchill:Wind:
Aussen-T/F 276 11-08-2020 22:55:00 21.3 C 17.52 g/m*3 21.3 C 1.6 km/h
277 11-08-2020 23:00:00 21.3 C 17.52 g/m*3 21.3 C 0 km/h
278 11-08-2020 23:05:00 21.4 C 17.81 g/m*3 21.4 C 3.2 km/h
279 11-08-2020 23:10:00 21.4 C 17.62 g/m*3 21.4 C 6.4 km/h
280 11-08-2020 23:15:00 21.3 C 17.71 g/m*3 21.3 C 4.8 km/h
281 11-08-2020 23:20:00 21.3 C 17.71 g/m*3 21.3 C 4.8 km/h
282 11-08-2020 23:25:00 21.3 C 17.71 g/m*3 21.3 C 6.4 km/h
283 11-08-2020 23:30:00 21.3 C 17.71 g/m*3 21.3 C 4.8 km/h
284 11-08-2020 23:35:00 21.3 C 17.71 g/m*3 21.3 C 4.8 km/h
285 11-08-2020 23:40:00 21.3 C 17.71 g/m*3 21.3 C 3.2 km/h
286 11-08-2020 23:45:00 21.3 C 17.71 g/m*3 21.3 C 3.2 km/h
287 11-08-2020 23:50:00 21.3 C 17.71 g/m*3 21.3 C 8.1 km/h
288 11-08-2020 23:55:00 21.2 C 17.61 g/m*3 21.2 C 11.3 km/h

Legende:
   Min
   Max


Maximal/Minimal-Werte vom 11.08.2020 - 11.08.2020

Sensor Min Max Avg
Temp
(Aussen-T/F)
20 °C
11-08-2020  06:45:00
36.1 °C
11-08-2020  16:40:00
25.77 °C
Abs-Feuchte
(Aussen-T/F)
13.46 g/m*3
11-08-2020  16:50:00
18.09 g/m*3
11-08-2020  20:50:00
15.59 g/m*3
Windchill
(Aussen-T/F)
20 C
11-08-2020  06:45:00
36.1 C
11-08-2020  16:40:00
25.68 C

Die Daten stammen von einer Davis Vantage Pro 2 Wetter-Station und werden unter Linux mit der Software wview2wettercgi und aufbereitet. Alle Angaben erfolgen ohne Gewähr für ihre Vollständigkeit oder Richtigkeit.
Kontakt: Rainer Krienke krienke@uni-koblenz.de . Meine Webseiten an der Uni Koblenz oder privat.
Version: $Revision: 0.78 $